H1 CPF 2 NER 2021 3 5 9 064 01 glonass107 H2 0706501 9107 32393 2021 3 5 0 0 0 2021 3 8 23 45 0 900 1 1 0 0 0 1 H9 10 0 59278 0.00000 0 -1912969.382 25433183.974 -211140.430 10 0 59278 900.00000 0 -1767190.935 25265476.040 2991167.563 10 0 59278 1800.00000 0 -1643002.312 24696965.160 6135326.928 10 0 59278 2700.00000 0 -1593986.349 23742494.146 9160186.703 10 0 59278 3600.00000 0 -1669804.460 22429566.849 12006886.949 10 0 59278 4500.00000 0 -1913848.781 20797266.378 14620011.252 10 0 59278 5400.00000 0 -2361161.928 18894704.109 16948673.054 10 0 59278 6300.00000 0 -3036713.984 16779063.964 18947513.945 10 0 59278 7200.00000 0 -3954111.043 14513323.842 20577593.761 10 0 59278 8100.00000 0 -5114791.435 12163749.692 21807154.711 10 0 59278 9000.00000 0 -6507745.028 9797267.183 22612244.349 10 0 59278 9900.00000 0 -8109768.742 7478821.133 22977185.003 10 0 59278 10800.00000 0 -9886248.731 5268833.145 22894880.502 10 0 59278 11700.00000 0 -11792437.354 3220863.569 22366954.212 10 0 59278 12600.00000 0 -13775171.963 1379575.274 21403715.764 10 0 59278 13500.00000 0 -15774963.945 -220916.263 20023957.225 10 0 59278 14400.00000 0 -17728370.627 -1558238.469 18254582.814 10 0 59278 15300.00000 0 -19570550.663 -2622453.853 16130079.553 10 0 59278 16200.00000 0 -21237895.647 -3416221.368 13691839.440 10 0 59278 17100.00000 0 -22670627.499 -3954421.900 10987346.616 10 0 59278 18000.00000 0 -23815252.429 -4263265.451 8069245.873 10 0 59278 18900.00000 0 -24626768.474 -4378919.578 4994311.154 10 0 59278 19800.00000 0 -25070534.006 -4345718.813 1822334.720 10 0 59278 20700.00000 0 -25123718.958 -4214032.373 -1385040.651 10 0 59278 21600.00000 0 -24776278.354 -4037881.808 -4565523.122 10 0 59278 22500.00000 0 -24031407.845 -3872410.516 -7657383.033 10 0 59278 23400.00000 0 -22905462.916 -3771312.970 -10600649.966 10 0 59278 24300.00000 0 -21427345.951 -3784332.865 -13338272.331 10 0 59278 25200.00000 0 -19637387.523 -3954936.073 -15817217.220 10 0 59278 26100.00000 0 -17585769.309 -4318256.558 -17989489.650 10 0 59278 27000.00000 0 -15330554.766 -4899401.632 -19813052.308 10 0 59278 27900.00000 0 -12935409.651 -5712187.701 -21252629.048 10 0 59278 28800.00000 0 -10467106.913 -6758359.472 -22280377.684 10 0 59278 29700.00000 0 -7992918.947 -8027325.545 -22876420.252 10 0 59278 30600.00000 0 -5578004.370 -9496421.881 -23029221.520 10 0 59278 31500.00000 0 -3282896.553 -11131692.889 -22735809.118 10 0 59278 32400.00000 0 -1161196.608 -12889158.614 -22001831.509 10 0 59278 33300.00000 0 742434.919 -14716516.513 -20841452.619 10 0 59278 34200.00000 0 2393905.548 -16555208.289 -19277084.798 10 0 59278 35100.00000 0 3770871.121 -18342767.126 -17338964.487 10 0 59278 36000.00000 0 4863420.630 -20015348.746 -15064577.754 10 0 59278 36900.00000 0 5674237.650 -21510341.730 -12497945.620 10 0 59278 37800.00000 0 6218232.090 -22768948.756 -9688781.811 10 0 59278 38700.00000 0 6521657.922 -23738631.077 -6691538.073 10 0 59278 39600.00000 0 6620754.009 -24375313.662 -3564354.756 10 0 59278 40500.00000 0 6559965.316 -24645257.950 -367936.414 10 0 59278 41400.00000 0 6389819.669 -24526522.677 2835626.045 10 0 59278 42300.00000 0 6164549.976 -24009950.157 5984063.548 10 0 59278 43200.00000 0 5939562.946 -23099635.269 9016143.565 10 0 59278 44100.00000 0 5768862.137 -21812856.059 11872867.110 10 0 59278 45000.00000 0 5702535.315 -20179467.641 14498623.882 10 0 59278 45900.00000 0 5784413.629 -18240783.784 16842282.337 10 0 59278 46800.00000 0 6050002.917 -16047992.298 18858192.727 10 0 59278 47700.00000 0 6524775.941 -13660170.115 20507082.872 10 0 59278 48600.00000 0 7222899.075 -11141980.845 21756828.786 10 0 59278 49500.00000 0 8146448.493 -8561150.979 22583084.812 10 0 59278 50400.00000 0 9285150.087 -5985830.215 22969760.769 10 0 59278 51300.00000 0 10616655.107 -3481946.127 22909336.774 10 0 59278 52200.00000 0 12107340.801 -1110663.466 22403009.608 10 0 59278 53100.00000 0 13713602.972 1073946.028 21460667.830 10 0 59278 54000.00000 0 15383586.579 3026926.557 20100696.235 10 0 59278 54900.00000 0 17059281.869 4714070.189 18349613.578 10 0 59278 55800.00000 0 18678897.954 6113090.572 16241550.805 10 0 59278 56700.00000 0 20179414.003 7214290.670 13817580.218 10 0 59278 57600.00000 0 21499200.582 8020698.183 11124908.897 10 0 59278 58500.00000 0 22580600.683 8547664.762 8215952.622 10 0 59278 59400.00000 0 23372361.658 8821947.840 5147308.808 10 0 59278 60300.00000 0 23831815.666 8880315.784 1978649.052 10 0 59278 61200.00000 0 23926716.883 8767737.037 -1228446.409 10 0 59278 62100.00000 0 23636658.426 8535231.467 -4411689.046 10 0 59278 63000.00000 0 22954009.722 8237476.128 -7509293.366 10 0 59278 63900.00000 0 21884335.454 7930267.683 -10461175.211 10 0 59278 64800.00000 0 20446279.007 7667949.450 -13210113.740 10 0 59278 65700.00000 0 18670915.802 7500912.072 -15702854.727 10 0 59278 66600.00000 0 16600603.994 7473273.270 -17891134.257 10 0 59278 67500.00000 0 14287380.722 7620834.264 -19732603.812 10 0 59278 68400.00000 0 11790970.653 7969398.528 -21191639.846 10 0 59278 69300.00000 0 9176489.356 8533523.202 -22240023.325 10 0 59278 70200.00000 0 6511936.167 9315755.328 -22857477.217 10 0 59278 71100.00000 0 3865579.514 10306384.980 -23032052.587 10 0 59278 72000.00000 0 1303341.885 11483725.933 -22760356.567 10 0 59278 72900.00000 0 -1113708.661 12814912.819 -22047618.248 10 0 59278 73800.00000 0 -3331658.030 14257182.484 -20907591.234 10 0 59278 74700.00000 0 -5305742.646 15759587.159 -19362294.364 10 0 59278 75600.00000 0 -7001961.509 17265069.305 -17441594.886 10 0 59278 76500.00000 0 -8398237.784 18712812.670 -15182641.074 10 0 59278 77400.00000 0 -9485082.295 20040772.418 -12629154.108 10 0 59278 78300.00000 0 -10265731.779 21188279.244 -9830591.707 10 0 59278 79200.00000 0 -10755756.451 22098608.830 -6841198.515 10 0 59278 80100.00000 0 -10982153.433 22721408.828 -3718960.860 10 0 59278 81000.00000 0 -10981964.253 23014880.998 -524485.493 10 0 59278 81900.00000 0 -10800474.732 22947625.904 2680176.191 10 0 59278 82800.00000 0 -10489073.356 22500071.350 5832735.448 10 0 59278 83700.00000 0 -10102858.974 21665423.025 8871881.148 10 0 59278 84600.00000 0 -9698099.488 20450095.797 11738478.224 10 0 59278 85500.00000 0 -9329649.814 18873605.997 14376725.404 10 0 59279 0.00000 0 -9048439.179 16967927.877 16735248.923 10 0 59279 900.00000 0 -8899135.506 14776339.671 18768110.441 10 0 59279 1800.00000 0 -8918085.615 12351807.633 20435708.215 10 0 59279 2700.00000 0 -9131621.353 9754973.767 21705554.297 10 0 59279 3600.00000 0 -9554802.153 7051831.974 22552911.774 10 0 59279 4500.00000 0 -10190649.491 4311188.963 22961279.565 10 0 59279 5400.00000 0 -11029905.684 1602015.890 22922715.274 10 0 59279 6300.00000 0 -12051328.048 -1009199.043 22437989.827 10 0 59279 7200.00000 0 -13222506.421 -3460986.724 21516570.919 10 0 59279 8100.00000 0 -14501169.914 -5699216.672 20176435.715 10 0 59279 9000.00000 0 -15836927.985 -7679103.802 18443716.558 10 0 59279 9900.00000 0 -17173372.423 -9366819.396 16352186.799 10 0 59279 10800.00000 0 -18450451.534 -10740640.128 13942596.975 10 0 59279 11700.00000 0 -19607016.241 -11791588.501 11261874.564 10 0 59279 12600.00000 0 -20583430.435 -12523539.455 8362203.385 10 0 59279 13500.00000 0 -21324135.248 -12952790.597 5300001.065 10 0 59279 14400.00000 0 -21780058.879 -13107116.105 2134815.063 10 0 59279 15300.00000 0 -21910770.213 -13024346.087 -1071840.518 10 0 59279 16200.00000 0 -21686285.477 -12750533.182 -4257684.111 10 0 59279 17100.00000 0 -21088451.917 -12337785.391 -7360878.016 10 0 59279 18000.00000 0 -20111850.539 -11841857.924 -10321227.897 10 0 59279 18900.00000 0 -18764180.255 -11319606.676 -13081347.063 10 0 59279 19800.00000 0 -17066107.616 -10826411.319 -15587763.164 10 0 59279 20700.00000 0 -15050588.665 -10413676.811 -17791946.235 10 0 59279 21600.00000 0 -12761691.308 -10126518.394 -19651239.011 10 0 59279 22500.00000 0 -10252967.117 -10001727.054 -21129672.526 10 0 59279 23400.00000 0 -7585439.968 -10066100.413 -22198652.289 10 0 59279 24300.00000 0 -4825294.263 -10335208.564 -22837502.971 10 0 59279 25200.00000 0 -2041357.602 -10812646.236 -23033862.080 10 0 59279 26100.00000 0 697519.006 -11489802.466 -22783915.796 10 0 59279 27000.00000 0 3325076.381 -12346157.622 -22092472.845 10 0 59279 27900.00000 0 5780151.112 -13350095.907 -20972875.044 10 0 59279 28800.00000 0 8008965.846 -14460200.169 -19446745.858 10 0 59279 29700.00000 0 9967112.358 -15626975.913 -17543581.134 10 0 59279 30600.00000 0 11621146.167 -16794933.509 -15300188.847 10 0 59279 31500.00000 0 12949727.167 -17904942.461 -12759987.580 10 0 59279 32400.00000 0 13944259.339 -18896759.917 -9972176.062 10 0 59279 33300.00000 0 14609003.178 -19711627.907 -6990788.693 10 0 59279 34200.00000 0 14960656.186 -20294830.309 -3873654.518 10 0 59279 35100.00000 0 15027419.163 -20598101.769 -681279.190 10 0 59279 36000.00000 0 14847587.522 -20581786.397 2524328.669 10 0 59279 36900.00000 0 14467727.057 -20216654.230 5680863.755 10 0 59279 37800.00000 0 13940511.340 -19485297.487 8726939.242 10 0 59279 38700.00000 0 13322312.459 -18383046.143 11603286.587 10 0 59279 39600.00000 0 12670647.441 -16918362.585 14253915.804 10 0 59279 40500.00000 0 12041589.079 -15112697.058 16627212.870 10 0 59279 41400.00000 0 11487251.408 -12999808.414 18676952.172 10 0 59279 42300.00000 0 11053457.030 -10624577.384 20363203.535 10 0 59279 43200.00000 0 10777685.738 -8041361.029 21653115.737 10 0 59279 44100.00000 0 10687391.849 -5311956.373 22521560.899 10 0 59279 45000.00000 0 10798762.017 -2503257.832 22951626.962 10 0 59279 45900.00000 0 11115966.462 315294.181 22934948.614 10 0 59279 46800.00000 0 11630935.570 3074367.392 22471870.219 10 0 59279 47700.00000 0 12323671.519 5707384.006 21571437.636 10 0 59279 48600.00000 0 13163081.798 8153049.329 20251219.194 10 0 59279 49500.00000 0 14108299.387 10357657.653 18536959.428 10 0 59279 50400.00000 0 15110433.633 12277079.772 16462072.502 10 0 59279 51300.00000 0 16114677.621 13878350.051 14066985.429 10 0 59279 52200.00000 0 17062682.656 15140787.851 11398344.154 10 0 59279 53100.00000 0 17895099.130 16056607.722 8508098.439 10 0 59279 54000.00000 0 18554176.003 16630994.493 5452483.870 10 0 59279 54900.00000 0 18986308.730 16881641.938 2290921.388 10 0 59279 55800.00000 0 19144427.669 16837776.306 -915143.516 10 0 59279 56700.00000 0 18990125.962 16538707.748 -4103438.743 10 0 59279 57600.00000 0 18495437.045 16031972.428 -7212076.863 10 0 59279 58500.00000 0 17644186.907 15371145.104 -10180755.722 10 0 59279 59400.00000 0 16432864.304 14613415.555 -12951924.982 10 0 59279 60300.00000 0 14870972.476 13817031.755 -15471896.167 10 0 59279 61200.00000 0 12980847.705 13038717.782 -17691875.042 10 0 59279 62100.00000 0 10796952.250 12331175.064 -19568897.182 10 0 59279 63000.00000 0 8364670.859 11740771.573 -21066649.597 10 0 59279 63900.00000 0 5738660.555 11305515.386 -22156163.577 10 0 59279 64800.00000 0 2980821.477 11053396.845 -22816366.571 10 0 59279 65700.00000 0 157971.881 11001168.072 -23034483.428 10 0 59279 66600.00000 0 -2660677.533 11153610.402 -22806280.043 10 0 59279 67500.00000 0 -5406146.883 11503320.089 -22136145.163 10 0 59279 68400.00000 0 -8012300.916 12031021.272 -21037008.854 10 0 59279 69300.00000 0 -10418346.555 12706393.478 -19530098.861 10 0 59279 70200.00000 0 -12571112.077 13489379.643 -17644538.872 10 0 59279 71100.00000 0 -14427014.576 14331920.729 -15416795.429 10 0 59279 72000.00000 0 -15953634.708 15180045.084 -12889983.032 10 0 59279 72900.00000 0 -17130833.805 15976225.707 -10113039.655 10 0 59279 73800.00000 0 -17951367.048 16661906.988 -7139787.453 10 0 59279 74700.00000 0 -18420967.090 17180094.905 -4027896.012 10 0 59279 75600.00000 0 -18557894.612 17477901.504 -837767.583 10 0 59279 76500.00000 0 -18391974.546 17508935.865 2368634.393 10 0 59279 77400.00000 0 -17963158.428 17235439.726 5528990.560 10 0 59279 78300.00000 0 -17319673.482 16630076.359 8581840.979 10 0 59279 79200.00000 0 -16515836.701 15677295.608 11467786.268 10 0 59279 80100.00000 0 -15609626.538 14374215.755 14130650.405 10 0 59279 81000.00000 0 -14660115.277 12730983.268 16518581.736 10 0 59279 81900.00000 0 -13724871.184 10770593.453 18585070.061 10 0 59279 82800.00000 0 -12857440.797 8528178.006 20289859.240 10 0 59279 83700.00000 0 -12105018.377 6049787.911 21599737.096 10 0 59279 84600.00000 0 -11506401.465 3390721.496 22489186.883 10 0 59279 85500.00000 0 -11090319.262 613466.768 22940887.376 10 0 59280 0.00000 0 -10874204.648 -2214656.671 22946051.828 10 0 59280 900.00000 0 -10863461.976 -5024058.355 22504599.105 10 0 59280 1800.00000 0 -11051260.623 -7745533.557 21625153.902 10 0 59280 2700.00000 0 -11418864.247 -10312905.360 20324875.886 10 0 59280 3600.00000 0 -11936479.839 -12665542.770 18629121.470 10 0 59280 4500.00000 0 -12564591.333 -14750649.658 16570944.815 10 0 59280 5400.00000 0 -13255720.342 -16525229.998 14190448.105 10 0 59280 6300.00000 0 -13956539.120 -17957648.009 11533993.982 10 0 59280 7200.00000 0 -14610245.701 -19028719.021 8653295.966 10 0 59280 8100.00000 0 -15159100.148 -19732286.748 5604405.066 10 0 59280 9000.00000 0 -15547014.027 -20075264.354 2446612.852 10 0 59280 9900.00000 0 -15722083.099 -20077139.270 -758706.887 10 0 59280 10800.00000 0 -15638955.782 -19768964.429 -3949294.813 10 0 59280 11700.00000 0 -15260937.051 -19191880.090 -7063217.206 10 0 59280 12600.00000 0 -14561738.868 -18395230.030 -10040067.634 10 0 59280 13500.00000 0 -13526803.338 -17434352.739 -12822135.690 10 0 59280 14400.00000 0 -12154142.886 -16368141.478 -15355520.282 10 0 59280 15300.00000 0 -10454662.188 -15256476.355 -17591166.267 10 0 59280 16200.00000 0 -8451948.208 -14157636.404 -19485805.137 10 0 59280 17100.00000 0 -6181536.782 -13125799.996 -21002782.564 10 0 59280 18000.00000 0 -3689685.827 -12208737.770 -22112757.817 10 0 59280 18900.00000 0 -1031705.405 -11445793.859 -22794262.761 10 0 59280 19800.00000 0 1730087.120 -10866238.977 -23034110.626 10 0 59280 20700.00000 0 4528703.247 -10488063.347 -22827647.476 10 0 59280 21600.00000 0 7295015.554 -10317259.222 -22178841.968 10 0 59280 22500.00000 0 9960382.696 -10347622.528 -21100211.802 10 0 59280 23400.00000 0 12459259.909 -10561081.785 -19612587.909 10 0 59280 24300.00000 0 14731688.305 -10928540.714 -17744720.294 10 0 59280 25200.00000 0 16725560.902 -11411199.659 -15532732.113 10 0 59280 26100.00000 0 18398572.076 -11962301.024 -13019431.420 10 0 59280 27000.00000 0 19719769.922 -12529226.090 -10253492.674 10 0 59280 27900.00000 0 20670647.093 -13055855.594 -7288522.666 10 0 59280 28800.00000 0 21245724.470 -13485095.051 -4182028.108 10 0 59280 29700.00000 0 21452603.092 -13761458.396 -994304.227 10 0 59280 30600.00000 0 21311481.875 -13833600.550 2212734.433 10 0 59280 31500.00000 0 20854161.092 -13656691.238 5376758.125 10 0 59280 32400.00000 0 20122573.355 -13194528.606 8436237.267 10 0 59280 33300.00000 0 19166903.937 -12421301.872 11331644.837 10 0 59280 34200.00000 0 18043379.789 -11322926.891 14006621.582 10 0 59280 35100.00000 0 16811820.815 -9897896.388 16409080.591 10 0 59280 36000.00000 0 15533057.093 -8157607.160 18492228.999 10 0 59280 36900.00000 0 14266321.532 -6126148.668 20215486.174 10 0 59280 37800.00000 0 13066728.421 -3839560.251 21545280.014 10 0 59280 38700.00000 0 11982944.567 -1344586.657 22455705.519 10 0 59280 39600.00000 0 11055151.560 1303017.078 22929032.529 10 0 59280 40500.00000 0 10313385.106 4040561.470 22956052.697 10 0 59280 41400.00000 0 9776321.316 6800793.086 22536258.952 10 0 59280 42300.00000 0 9450560.822 9514461.172 21677853.977 10 0 59280 43200.00000 0 9330440.378 12112973.691 20397587.698 10 0 59280 44100.00000 0 9398379.180 14531032.278 18720427.024 10 0 59280 45000.00000 0 9625744.512 16709136.374 16679064.498 10 0 59280 45900.00000 0 9974199.221 18595852.440 14313275.624 10 0 59280 46800.00000 0 10397473.104 20149753.988 11669137.681 10 0 59280 47700.00000 0 10843482.363 21340952.011 8798125.689 10 0 59280 48600.00000 0 11256706.491 22152152.745 5756103.636 10 0 59280 49500.00000 0 11580721.174 22579199.724 2602231.145 10 0 59280 50400.00000 0 11760779.246 22631078.758 -602192.385 10 0 59280 51300.00000 0 11746329.910 22329387.256 -3794923.090 10 0 59280 52200.00000 0 11493369.239 21707291.830 -6913983.632 10 0 59280 53100.00000 0 10966522.364 20808019.503 -9898865.853 10 0 59280 54000.00000 0 10140769.335 19682947.352 -12691701.641 10 0 59280 54900.00000 0 9002741.823 18389371.872 -15238379.439 10 0 59280 55800.00000 0 7551536.082 16988052.432 -17489585.100 10 0 59280 56700.00000 0 5799007.874 15540632.144 -19401747.717 10 0 59280 57600.00000 0 3769536.681 14107044.045 -20937873.081 10 0 59280 58500.00000 0 1499268.553 12743010.660 -22068249.696 10 0 59280 59400.00000 0 -965131.653 11497740.641 -22771014.882 10 0 59280 60300.00000 0 -3568167.848 10411917.671 -23032571.073 10 0 59280 61200.00000 0 -6247571.222 9516064.536 -22847845.034 10 0 59280 62100.00000 0 -8936645.841 8829349.579 -22220385.557 10 0 59280 63000.00000 0 -11566805.710 8358884.517 -21162297.806 10 0 59280 63900.00000 0 -14070199.640 8099542.347 -19694015.331 10 0 59280 64800.00000 0 -16382316.621 8034302.653 -17843913.484 10 0 59280 65700.00000 0 -18444464.832 8135109.847 -15647770.691 10 0 59280 66600.00000 0 -20206022.160 8364208.632 -13148086.917 10 0 59280 67500.00000 0 -21626365.251 8675901.002 -10393271.223 10 0 59280 68400.00000 0 -22676396.867 9018651.307 -7436712.993 10 0 59280 69300.00000 0 -23339607.685 9337451.091 -4335753.911 10 0 59280 70200.00000 0 -23612627.780 9576344.020 -1150579.947 10 0 59280 71100.00000 0 -23505244.225 9681004.122 2056945.532 10 0 59280 72000.00000 0 -23039883.500 9601257.780 5224484.744 10 0 59280 72900.00000 0 -22250580.053 9293441.927 8290440.883 10 0 59280 73800.00000 0 -21181474.045 8722497.380 11195161.754 10 0 59280 74700.00000 0 -19884901.420 7863707.281 13882107.369 10 0 59280 75600.00000 0 -18419156.757 6704005.407 16298958.050 10 0 59280 76500.00000 0 -16846023.371 5242797.228 18398640.685 10 0 59280 77400.00000 0 -15228175.016 3492257.290 20140252.425 10 0 59280 78300.00000 0 -13626558.961 1477088.588 21489863.334 10 0 59280 79200.00000 0 -12097870.888 -766247.575 22421181.999 10 0 59280 80100.00000 0 -10692228.130 -3190800.274 22916070.873 10 0 59280 81000.00000 0 -9451139.118 -5740844.187 22964901.263 10 0 59280 81900.00000 0 -8405854.272 -8353970.504 22566741.040 10 0 59280 82800.00000 0 -7576167.300 -10963466.649 21729371.456 10 0 59280 83700.00000 0 -6969716.680 -13500885.888 20469132.883 10 0 59280 84600.00000 0 -6581815.795 -15898699.801 18810602.566 10 0 59280 85500.00000 0 -6395817.882 -18092922.973 16786110.878 10 0 59281 0.00000 0 -6383999.121 -20025600.540 14435105.779 10 0 59281 900.00000 0 -6508921.365 -21647054.751 11803377.779 10 0 59281 1800.00000 0 -6725215.538 -22917797.520 8942161.822 10 0 59281 2700.00000 0 -6981709.150 -23810028.361 5907132.921 10 0 59281 3600.00000 0 -7223806.613 -24308657.371 2757316.518 10 0 59281 4500.00000 0 -7396020.675 -24411810.155 -446064.871 10 0 59281 5400.00000 0 -7444546.926 -24130795.433 -3640785.584 10 0 59281 6300.00000 0 -7319771.778 -23489537.889 -6764827.612 10 0 59281 7200.00000 0 -6978607.451 -22523501.497 -9757584.211 10 0 59281 8100.00000 0 -6386555.018 -21278149.855 -12561032.841 10 0 59281 9000.00000 0 -5519408.345 -19807009.192 -15120854.831 10 0 59281 9900.00000 0 -4364527.097 -18169416.102 -17387480.353 10 0 59281 10800.00000 0 -2921625.171 -16428044.698 -19317039.278 10 0 59281 11700.00000 0 -1203041.230 -14646316.654 -20872200.442 10 0 59281 12600.00000 0 766520.368 -12885801.936 -22022884.138 10 0 59281 13500.00000 0 2950768.161 -11203717.962 -22746835.266 10 0 59281 14400.00000 0 5303090.231 -9650630.374 -23030047.078 10 0 59281 15300.00000 0 7768257.395 -8268450.108 -22867028.165 10 0 59281 16200.00000 0 10284493.666 -7088808.939 -22260908.055 10 0 59281 17100.00000 0 12785829.628 -6131880.009 -21223379.512 10 0 59281 18000.00000 0 15204642.617 -5405691.626 -19774478.366 10 0 59281 18900.00000 0 17474279.817 -4905962.222 -17942204.504 10 0 59281 19800.00000 0 19531656.655 -4616462.964 -15761990.345 10 0 59281 20700.00000 0 21319723.403 -4509892.730 -13276025.986 10 0 59281 21600.00000 0 22789697.997 -4549228.806 -10532452.817 10 0 59281 22500.00000 0 23902972.189 -4689496.758 -7584440.064 10 0 59281 23400.00000 0 24632611.304 -4879885.183 -4489161.212 10 0 59281 24300.00000 0 24964384.408 -5066116.276 -1306689.470 10 0 59281 25200.00000 0 24897281.126 -5192971.969 1901166.688 10 0 59281 26100.00000 0 24443492.609 -5206868.474 5072065.214 10 0 59281 27000.00000 0 23627856.748 -5058369.561 8144345.779 10 0 59281 27900.00000 0 22486790.283 -4704531.118 11058234.499 10 0 59281 28800.00000 0 21066752.264 -4110976.447 13757013.844 10 0 59281 29700.00000 0 19422303.248 -3253612.881 16188134.174 10 0 59281 30600.00000 0 17613841.774 -2119915.411 18304244.545 10 0 59281 31500.00000 0 15705113.473 -709721.365 20064121.888 10 0 59281 32400.00000 0 13760597.696 964499.187 21433480.015 10 0 59281 33300.00000 0 11842881.673 2877910.349 22385642.279 10 0 59281 34200.00000 0 10010132.702 4994104.872 22902064.532 10 0 59281 35100.00000 0 8313774.483 7266394.120 22972698.120 10 0 59281 36000.00000 0 6796464.907 9639540.470 22596185.841 10 0 59281 36900.00000 0 5490459.816 12051860.327 21779887.097 10 0 59281 37800.00000 0 4416430.699 14437610.262 20539731.902 10 0 59281 38700.00000 0 3582784.977 16729556.827 18899906.652 10 0 59281 39600.00000 0 2985516.329 18861622.688 16892378.025 10 0 59281 40500.00000 0 2608589.898 20771498.501 14556264.486 10 0 59281 41400.00000 0 2424844.614 22403111.386 11937067.884 10 0 59281 42300.00000 0 2397372.995 23708846.730 9085780.610 10 0 59281 43200.00000 0 2481318.564 24651430.604 6057886.136 10 0 59281 44100.00000 0 2626013.376 25205394.389 2912272.964 10 0 59281 45000.00000 0 2777363.942 25358060.852 -289916.140 10 0 59281 45900.00000 0 2880383.392 25110011.242 -3486476.650 10 0 59281 46800.00000 0 2881761.860 24475014.887 -6615352.789 10 0 59281 47700.00000 0 2732365.683 23479425.406 -9615842.024 10 0 59281 48600.00000 0 2389559.408 22161069.999 -12429770.021 10 0 59281 49500.00000 0 1819252.312 20567679.420 -15002613.389 10 0 59281 50400.00000 0 997583.110 18754925.150 -17284548.774 10 0 59281 51300.00000 0 -87828.104 16784146.381 -19231408.720 10 0 59281 52200.00000 0 -1437113.412 14719861.795 -20805526.745 10 0 59281 53100.00000 0 -3037908.472 12627169.721 -21976456.327 10 0 59281 54000.00000 0 -4865632.678 10569144.281 -22721551.077 10 0 59281 54900.00000 0 -6884287.198 8604334.906 -23026395.917 10 0 59281 55800.00000 0 -9047738.641 6784472.069 -22885081.793 10 0 59281 56700.00000 0 -11301436.256 5152473.269 -22300319.136 10 0 59281 57600.00000 0 -13584492.800 3740830.852 -21283388.059 10 0 59281 58500.00000 0 -15832044.088 2570447.601 -19853925.993 10 0 59281 59400.00000 0 -17977790.730 1649967.571 -18039556.258 10 0 59281 60300.00000 0 -19956617.744 975629.312 -15875363.781 10 0 59281 61200.00000 0 -21707184.049 531647.216 -13403226.984 10 0 59281 62100.00000 0 -23174374.693 291104.753 -10671017.544 10 0 59281 63000.00000 0 -24311513.815 217322.095 -7731682.301 10 0 59281 63900.00000 0 -25082245.705 265640.689 -4642224.200 10 0 59281 64800.00000 0 -25462004.793 385549.610 -1462601.272 10 0 59281 65700.00000 0 -25439012.164 523063.868 1745435.381 10 0 59281 66600.00000 0 -25014755.847 623253.884 4919541.980 10 0 59281 67500.00000 0 -24203933.657 632818.517 7997997.243 10 0 59281 68400.00000 0 -23033860.047 502591.886 10920908.194 10 0 59281 69300.00000 0 -21543361.074 189876.708 13631382.320 10 0 59281 70200.00000 0 -19781203.309 -339496.007 16076642.517 10 0 59281 71100.00000 0 -17804122.318 -1109469.610 18209062.335 10 0 59281 72000.00000 0 -15674533.375 -2132500.179 19987100.605 10 0 59281 72900.00000 0 -13458020.495 -3408785.536 21376116.719 10 0 59281 73800.00000 0 -11220709.154 -4926019.071 22349050.307 10 0 59281 74700.00000 0 -9026633.035 -6659680.128 22886951.776 10 0 59281 75600.00000 0 -6935205.055 -8573850.081 22979353.317 10 0 59281 76500.00000 0 -4998898.471 -10622520.892 22624473.131 10 0 59281 77400.00000 0 -3261234.870 -12751342.000 21829248.938 10 0 59281 78300.00000 0 -1755162.641 -14899732.920 20609200.253 10 0 59281 79200.00000 0 -501892.969 -17003273.355 18988122.215 10 0 59281 80100.00000 0 489758.980 -18996270.819 16997617.113 10 0 59281 81000.00000 0 1223501.502 -20814398.214 14676472.991 10 0 59281 81900.00000 0 1715158.739 -22397290.844 12069901.672 10 0 59281 82800.00000 0 1991746.890 -23690993.847 9228651.515 10 0 59281 83700.00000 0 2090075.044 -24650157.533 6208012.655 10 0 59281 84600.00000 0 2054931.506 -25239888.657 3066734.633 10 0 59281 85500.00000 0 1936933.811 -25437180.272 -134121.768 99